Dewpoint
55 55 55 55 55 55 56 56 56 57 57 57 57 57 57 57 58 58 57 58 58 59 59 59 60 60 60 61 61 61 59 51 52 48 43 41 52 63 62 63 63 64 62 38 36 32 32 31 30 31 38 35 36 33 39 38 41 36 27 27 22 26 25 30 24 23 25 20 19 19 20 17 17 18 19 19 21 22 21 20 21 22 22 23 26 41 47 50
54 54 54 55 55 55 55 56 56 57 57 56 57 57 57 57 57 57 57 57 58 58 58 59 59 60 60 60 61 61 56 51 45 46 46 53 66 67 65 65 64 64 54 36 32 33 30 30 30 35 35 30 41 35 38 37 38 31 32 23 20 28 28 31 24 24 20 21 20 21 21 19 21 20 21 19 18 18 18 18 19 19 20 22 22 27 47 51
55 54 55 55 55 55 55 55 56 56 57 57 57 56 56 57 57 57 57 57 58 58 58 59 59 60 60 60 60 60 55 48 40 31 39 64 66 66 66 65 63 61 41 39 34 32 29 28 30 29 33 28 32 33 36 35 34 36 28 25 29 31 28 30 28 26 21 21 22 23 23 24 23 21 21 21 18 19 19 18 18 17 17 18 23 23 46 49
55 55 55 54 55 55 55 55 56 56 57 57 57 57 56 57 57 57 57 57 57 57 58 58 59 59 59 60 60 57 52 32 32 34 44 63 66 68 66 64 63 59 44 39 35 32 31 29 29 30 32 30 30 38 34 36 29 33 29 28 29 31 28 25 26 25 25 24 23 23 24 21 21 22 22 21 19 19 18 19 19 18 18 19 21 25 44 47
55 55 55 54 54 56 55 55 55 56 57 57 57 57 56 57 57 57 58 57 57 57 58 58 59 59 59 60 60 53 40 22 28 39 50 65 63 66 66 66 63 51 43 42 35 32 30 27 27 31 29 23 29 28 33 35 33 33 29 30 30 30 26 25 26 27 24 23 22 21 21 20 24 24 21 21 20 18 17 18 20 20 21 21 20 21 32 42
55 55 54 54 54 56 55 55 55 56 57 57 57 57 57 57 57 58 58 57 57 57 58 58 58 58 59 59 55 49 25 15 26 41 66 65 66 67 66 64 60 44 40 37 35 32 29 28 25 26 24 23 23 20 19 32 33 28 29 29 29 29 26 27 25 25 23 22 22 22 23 24 24 23 24 22 21 20 21 21 21 21 21 21 22 24 26 29
55 55 55 54 55 55 55 55 56 56 57 56 57 57 57 58 58 58 58 57 57 57 58 58 58 58 58 58 53 37 29 23 37 52 63 66 67 66 64 62 55 43 38 36 32 30 30 28 25 28 25 25 23 21 22 24 30 30 26 28 28 29 28 27 26 25 21 23 21 24 25 22 22 20 23 21 21 21 22 22 22 21 22 22 22 22 22 24
56 55 55 55 56 55 55 56 56 56 56 57 57 57 58 58 58 58 58 58 58 58 58 57 58 58 58 53 45 38 37 32 30 52 62 65 62 60 56 49 47 44 37 33 31 29 29 25 23 28 22 20 21 22 23 24 27 30 28 24 26 26 27 27 23 21 21 21 21 24 21 19 21 20 24 21 21 21 22 24 24 24 23 22 22 22 23 25
58 56 55 55 56 55 55 56 56 56 56 57 57 57 58 58 58 58 58 58 57 57 57 57 57 57 57 52 37 34 32 42 47 55 60 57 57 51 45 38 45 40 40 37 33 32 30 27 27 24 20 25 25 24 24 21 20 24 22 23 22 22 22 21 21 21 21 21 21 19 19 19 19 24 21 20 20 21 23 22 21 22 22 21 20 19 19 22
58 56 55 55 55 55 55 56 56 56 57 57 58 58 58 58 58 58 58 57 57 57 57 57 56 57 49 42 38 32 37 47 58 61 58 57 55 50 47 44 43 39 35 36 33 31 30 29 29 30 28 28 26 23 23 21 20 23 22 22 21 21 21 22 20 20 21 21 20 19 18 18 21 21 17 19 21 23 20 20 20 20 19 19 18 23 30 34
57 56 55 55 55 55 56 56 56 56 57 58 58 58 58 58 58 58 57 57 56 56 56 56 57 54 47 46 34 31 42 51 54 59 56 53 49 45 46 47 45 39 38 38 36 36 33 31 38 37 33 25 25 23 24 23 23 23 22 21 21 21 21 21 20 20 20 19 20 19 18 20 19 24 18 18 19 20 19 19 19 20 20 20 24 33 35 35
57 56 55 55 55 55 56 56 56 56 57 58 58 59 59 59 58 57 57 56 56 56 56 56 56 54 52 40 35 32 46 47 55 57 52 48 47 47 48 46 43 45 38 36 41 43 44 38 36 28 24 29 24 24 21 23 24 23 21 19 20 20 19 20 19 20 20 19 19 19 17 16 20 18 19 19 20 20 19 18 18 18 18 21 32 34 34 34
57 56 55 55 55 56 56 56 56 57 58 58 59 59 59 59 58 57 57 56 56 56 56 56 57 53 45 27 31 43 47 47 51 50 49 50 48 48 49 47 45 45 42 39 39 40 43 41 34 29 31 27 26 23 24 26 24 22 20 20 18 19 19 20 22 21 20 19 19 18 16 17 17 17 18 19 19 19 17 17 17 19 18 22 33 33 33 33
57 56 56 56 56 55 56 57 57 58 58 59 59 59 59 59 58 57 57 56 57 56 56 57 52 52 35 25 35 44 45 50 51 48 47 49 43 45 47 47 46 42 46 39 39 38 40 40 34 31 35 26 24 31 24 23 22 19 19 20 19 19 20 21 22 21 21 22 19 18 18 17 18 18 19 19 19 18 17 17 17 18 19 26 33 32 32 32
57 57 57 56 56 56 57 58 58 58 59 59 59 59 59 59 58 58 57 56 57 56 56 58 51 39 29 27 42 44 58 47 47 47 49 45 42 40 43 42 39 39 40 40 38 40 40 39 34 28 27 28 29 25 23 24 24 21 20 22 26 19 21 22 23 23 22 21 19 17 20 17 16 17 18 18 19 20 17 17 17 19 28 31 32 32 31 31
57 57 57 56 57 57 57 58 59 58 59 59 59 59 59 59 58 56 57 57 54 56 53 49 49 41 27 24 36 52 41 42 42 45 46 49 43 40 43 41 42 37 35 33 37 35 32 31 27 27 28 25 24 24 24 23 25 28 20 24 24 21 20 21 22 23 22 19 18 17 18 17 18 18 18 18 18 18 17 18 18 22 32 31 31 31 30 30
58 57 57 57 57 57 58 58 58 59 59 59 59 59 59 59 58 57 57 56 55 54 52 49 51 44 27 34 38 35 36 40 46 45 41 44 45 43 39 38 37 34 35 34 36 33 30 27 31 27 29 24 23 26 21 23 21 22 24 20 25 20 21 21 24 25 25 19 17 18 15 15 17 17 17 18 18 18 18 18 19 28 32 31 31 30 30 29
58 58 57 58 58 58 58 58 59 59 59 59 59 59 57 58 57 56 56 56 54 52 51 54 47 35 29 37 31 30 43 41 45 45 44 41 44 38 36 34 36 34 34 29 30 27 30 27 28 25 27 25 22 23 22 21 23 23 24 23 24 25 21 20 23 24 24 24 23 23 22 22 22 22 21 21 21 20 20 20 20 31 31 31 30 30 30 29
58 58 58 58 58 58 59 59 59 59 59 60 59 58 58 57 53 52 53 53 47 38 35 35 33 30 29 31 36 44 45 45 44 41 38 40 42 41 38 36 35 28 29 27 26 27 30 31 31 24 23 23 21 20 22 25 25 24 25 25 26 24 24 22 23 24 24 22 22 22 22 22 22 22 21 22 22 21 20 21 25 31 30 30 30 30 30 30
58 58 58 59 59 59 59 59 59 59 60 58 57 54 50 46 45 44 44 48 45 37 36 37 34 35 35 34 39 44 46 42 33 40 42 42 40 38 34 34 35 34 28 29 31 29 32 25 23 23 24 24 23 22 21 23 24 24 25 25 23 24 24 25 25 25 23 22 21 21 21 21 21 21 23 23 23 24 22 21 30 30 30 30 30 30 29 29
59 59 59 58 58 59 59 59 59 60 59 58 56 50 43 43 39 40 43 43 44 44 41 39 33 32 32 39 41 37 33 34 38 41 41 45 39 33 32 31 31 29 31 32 30 30 30 25 25 26 25 25 24 24 22 22 22 22 24 23 21 25 22 25 24 25 23 21 21 21 22 23 23 23 23 23 23 26 31 27 30 30 30 30 30 29 29 29
58 59 59 59 59 59 59 59 60 59 59 57 55 50 44 44 44 45 42 40 43 45 44 42 41 39 39 39 40 39 39 35 36 40 44 40 34 31 31 31 29 28 32 31 29 26 25 25 25 26 26 26 27 26 24 23 25 26 24 25 25 25 27 26 25 26 22 25 23 23 23 23 23 23 25 28 29 31 31 30 30 29 30 30 30 29 29 28
58 59 59 59 59 59 59 59 59 59 57 53 49 47 44 45 46 46 43 40 39 43 43 43 42 42 42 37 38 39 36 36 36 39 41 40 34 33 31 30 29 30 32 28 27 26 24 27 26 26 28 27 27 27 27 28 28 27 27 25 25 26 24 23 24 27 27 24 24 24 22 23 23 23 29 30 31 30 31 31 32 31 30 29 29 29 28 27
59 59 59 59 59 59 60 60 59 57 54 53 49 48 48 47 46 43 40 37 37 39 41 42 42 42 42 39 39 37 37 37 38 38 42 36 32 36 31 30 29 30 29 28 28 27 27 27 27 27 29 27 27 28 28 26 26 28 28 26 25 25 25 23 22 28 26 25 26 23 24 24 25 24 25 28 30 30 30 30 30 31 31 31 31 30 29 28
59 58 59 59 59 59 59 59 56 55 52 50 48 49 48 46 47 44 40 37 36 39 44 41 43 41 38 42 42 36 37 37 38 37 41 36 32 32 31 31 30 29 30 29 28 29 29 29 33 29 30 28 29 27 28 29 27 27 29 27 26 26 25 27 29 24 23 23 26 24 20 21 25 25 24 27 27 28 29 29 29 30 30 30 28 28 28 29
59 58 59 59 59 59 59 55 53 52 51 50 50 48 47 47 46 45 39 33 32 36 39 37 42 39 40 34 39 38 37 34 37 38 45 40 40 33 31 30 30 30 29 30 28 30 28 30 32 31 31 29 29 29 29 29 27 24 26 29 28 27 27 26 25 25 21 19 23 25 19 19 24 24 25 25 27 28 29 29 29 29 29 29 28 28 27 27
59 59 59 59 59 59 55 52 52 51 49 50 50 49 48 48 47 44 39 32 30 36 37 41 37 36 37 35 37 37 33 34 36 36 38 40 34 38 30 30 30 30 31 31 30 28 30 29 30 31 31 30 28 26 29 27 26 24 27 31 30 27 26 26 25 23 23 25 26 26 23 20 19 23 25 26 27 27 28 28 29 29 28 28 27 27 27 27
59 59 59 59 59 58 55 53 54 51 50 50 51 49 48 47 47 44 36 30 30 36 34 35 36 38 34 30 36 32 32 34 32 33 37 39 35 32 31 29 30 30 28 30 27 31 29 27 29 29 28 28 27 28 30 30 26 26 29 29 27 27 26 26 23 23 24 22 22 24 24 20 20 22 27 26 25 25 27 28 28 28 28 27 27 28 27 28
58 59 58 59 59 59 57 55 53 52 51 51 50 50 50 48 45 38 33 31 35 36 34 29 37 33 31 31 28 28 31 29 28 32 38 36 38 32 31 31 29 29 27 29 27 29 30 30 30 31 29 27 30 30 32 30 26 29 31 30 29 28 27 25 23 23 23 20 19 22 24 17 20 24 27 23 24 25 26 28 28 28 28 27 28 28 28 28
58 58 58 58 58 57 57 57 54 53 52 51 51 49 49 47 41 37 33 28 37 33 30 31 30 29 29 28 27 25 24 26 32 33 32 31 32 33 29 30 26 26 26 29 28 30 28 31 35 29 28 29 30 30 32 32 30 31 29 27 27 26 26 25 24 22 19 15 21 23 24 21 18 23 23 24 25 25 26 28 28 29 28 29 29 28 28 27
58 58 58 58 56 56 57 54 57 52 50 50 51 52 48 44 38 34 31 35 38 36 31 30 28 30 26 26 25 25 26 29 30 31 30 31 31 29 29 27 30 28 26 27 25 28 29 29 27 29 34 31 30 29 30 30 30 27 24 24 24 24 22 21 18 21 16 15 19 22 24 23 16 20 24 25 26 25 27 27 27 27 27 27 27 28 27 27
58 58 58 58 57 57 55 54 55 52 51 52 54 52 48 38 40 33 32 35 35 36 30 29 31 28 26 31 27 25 24 26 29 29 28 29 28 27 27 26 26 20 23 23 24 26 26 27 30 29 33 29 27 28 27 29 28 26 24 23 17 17 16 10 14 13 14 15 19 23 25 22 22 23 26 27 27 27 27 28 27 27 27 27 27 27 27 26
56 56 56 57 55 55 55 53 53 53 53 54 53 50 42 36 30 36 35 35 33 33 31 35 30 29 29 29 28 28 30 25 26 28 31 30 29 29 30 29 30 25 20 23 24 22 24 26 28 29 29 32 30 25 24 24 25 24 23 21 17 12 10 6 8 8 9 15 19 22 23 19 21 23 28 27 27 27 28 28 28 27 26 26 26 27 27 26
54 55 54 53 54 54 53 53 53 53 54 54 52 46 39 33 32 40 36 34 37 37 36 32 31 33 31 27 33 30 25 30 28 26 30 28 27 26 28 30 30 28 23 24 21 21 15 20 24 28 26 30 29 27 27 26 25 24 25 24 22 14 8 6 5 7 11 15 16 20 15 15 14 16 28 27 27 27 27 27 27 27 27 27 26 26 25 25
53 53 53 53 53 54 52 52 52 54 55 53 48 43 34 33 33 34 33 34 35 37 33 38 32 31 31 32 34 31 30 28 30 29 28 29 27 26 27 27 31 30 28 22 25 21 22 22 24 30 30 29 28 31 31 28 26 25 26 26 19 19 21 11 13 9 10 15 15 15 18 20 21 27 27 27 26 26 26 26 26 26 26 26 25 25 24 24
51 51 53 51 52 53 53 52 53 54 53 50 44 37 35 35 32 33 34 38 37 33 34 35 34 30 30 32 34 31 35 30 32 28 27 29 30 28 30 31 30 29 27 25 26 21 22 22 27 31 29 29 28 32 30 29 20 24 26 20 26 27 23 18 18 19 15 12 19 13 21 23 25 26 26 27 25 25 25 25 25 25 25 24 24 24 24 24
49 50 48 49 50 53 53 53 53 53 52 48 42 36 39 37 36 37 41 37 37 35 34 31 35 28 31 30 31 34 34 34 31 28 27 31 28 31 31 32 35 31 29 27 26 29 23 24 30 28 27 29 29 30 31 31 28 26 21 25 28 30 28 22 15 12 13 13 13 14 16 18 19 16 25 25 24 24 24 24 24 24 24 23 24 24 24 24
48 48 49 49 50 54 53 53 54 52 50 45 40 39 39 38 40 38 40 37 37 39 36 34 36 33 32 31 30 33 35 31 32 30 30 30 28 33 31 29 32 32 31 31 25 27 29 22 25 30 29 31 31 29 29 30 30 27 26 29 24 18 19 22 16 14 14 12 11 15 20 19 20 19 24 24 24 23 23 23 23 23 23 23 24 24 24 25
48 48 44 49 53 54 53 54 53 50 46 41 40 39 42 39 41 39 40 39 41 40 37 38 36 36 35 31 32 35 33 30 32 31 28 29 28 32 30 32 30 33 35 29 26 28 29 19 23 27 30 29 28 28 25 26 29 29 29 26 28 25 19 16 20 16 14 10 13 9 16 18 22 22 24 24 25 24 23 23 22 22 23 23 23 23 23 24
45 44 43 51 52 53 54 53 50 47 44 38 40 40 41 39 40 41 41 39 39 39 38 37 38 36 35 35 32 31 34 33 32 32 29 30 29 30 29 36 31 31 35 34 30 33 27 26 17 25 28 28 26 27 26 27 25 25 25 23 24 21 25 25 22 20 19 14 15 17 18 20 24 27 26 25 24 24 24 23 23 23 23 23 23 23 24 25
46 44 43 51 53 54 53 50 45 42 41 39 40 39 39 39 40 40 41 43 42 45 42 40 39 36 35 35 34 33 31 33 33 31 30 31 26 25 34 35 34 31 35 34 33 33 27 28 24 25 27 26 27 30 30 29 28 27 25 24 25 19 19 17 19 23 20 19 16 18 19 20 27 27 26 25 25 25 24 24 24 23 23 24 24 24 25 26
43 37 42 51 53 53 49 41 41 42 40 39 39 40 39 43 39 39 42 43 42 41 44 41 39 38 37 37 37 31 33 32 33 32 33 30 34 31 36 37 36 34 31 30 31 35 30 30 27 24 26 27 28 29 31 31 30 29 28 26 27 25 25 17 20 18 19 21 18 17 19 19 27 28 26 26 25 25 25 24 24 25 25 25 25 26 28 28
42 41 48 51 53 51 45 39 40 39 38 39 41 41 41 40 40 40 41 42 40 42 40 39 39 37 37 38 37 35 35 32 35 34 35 34 33 37 37 37 36 35 36 34 34 33 35 26 25 26 25 26 26 27 30 30 30 27 27 27 27 26 27 26 22 21 18 20 22 18 20 26 28 29 27 25 25 25 25 25 25 27 28 28 28 30 28 27
42 42 44 49 51 50 42 33 34 36 38 39 39 39 41 41 41 39 40 41 41 40 40 39 39 39 37 38 35 34 35 30 35 35 33 35 33 38 36 36 35 33 32 33 31 35 27 27 28 21 19 23 23 23 25 29 28 25 25 26 27 27 25 23 22 23 22 25 25 21 19 22 29 27 26 25 26 25 25 26 27 27 29 28 27 27 26 24
42 43 44 46 49 47 39 40 37 36 37 37 37 37 39 39 41 41 41 40 42 41 39 38 39 39 37 36 35 35 36 34 31 34 34 33 34 35 35 35 35 33 36 36 37 35 29 28 27 22 21 17 14 12 10 20 26 26 24 27 26 27 24 22 19 23 23 27 27 24 23 27 29 28 27 27 26 25 26 26 25 28 28 28 26 24 24 22
37 32 41 42 45 44 43 43 40 38 35 36 36 37 38 37 39 41 41 40 42 41 41 39 38 38 36 35 34 34 34 35 33 30 33 33 33 31 32 32 31 33 36 39 35 30 24 26 26 26 24 21 20 15 21 26 24 21 20 23 24 24 24 24 23 21 22 24 22 23 22 20 21 24 26 26 24 25 25 24 23 23 24 26 24 24 23 22
36 33 36 33 42 41 40 42 40 39 35 38 33 36 35 36 37 38 42 37 41 40 39 39 38 37 36 36 35 34 35 33 34 31 32 32 32 31 33 32 32 35 37 35 34 30 27 26 27 23 24 24 21 23 25 26 23 22 20 22 23 22 21 19 21 18 20 17 18 22 21 16 22 22 23 23 23 22 22 22 21 20 23 24 24 23 26 21
32 33 38 39 35 33 35 36 40 39 38 38 35 37 35 35 36 35 39 40 39 41 38 37 38 38 37 36 35 34 34 34 33 32 31 31 32 33 30 31 30 32 33 31 31 30 27 24 22 27 25 25 25 25 24 23 24 24 24 24 24 24 18 18 13 21 19 18 17 18 17 16 18 19 19 21 22 22 21 20 21 23 22 22 21 22 20 19
34 33 32 32 33 35 36 36 38 38 38 38 36 36 34 34 34 36 36 36 38 37 39 34 36 38 38 38 36 34 33 31 31 30 30 30 30 29 28 28 29 28 28 28 28 26 23 15 22 25 23 24 24 23 24 22 22 21 21 21 22 21 20 19 19 21 22 20 21 21 20 19 18 18 19 21 21 21 22 23 22 21 21 21 20 20 18 18
31 31 30 32 32 31 33 37 38 37 36 38 35 35 35 34 33 35 36 37 35 36 39 36 35 36 36 36 37 34 34 34 33 32 29 31 28 28 29 28 27 28 27 28 28 27 27 19 26 22 20 13 14 23 23 22 19 17 19 20 20 20 20 21 20 20 21 21 21 20 19 19 21 22 21 21 22 22 22 22 21 21 22 22 21 20 21 21
32 32 32 28 27 29 32 34 36 36 35 36 35 35 36 35 34 35 35 34 36 35 36 36 37 35 35 35 34 35 34 33 32 33 32 32 32 30 31 28 29 27 24 24 24 23 24 18 21 16 12 8 10 19 20 16 14 13 16 17 17 17 17 17 18 20 20 19 19 19 17 19 21 21 21 15 18 20 21 21 21 22 22 23 21 21 21 20
31 32 33 29 26 31 31 32 35 36 32 35 35 35 36 36 35 34 33 33 33 34 34 35 37 36 34 33 33 34 33 29 26 28 27 27 30 30 30 28 29 28 23 25 25 21 19 19 15 12 12 7 11 16 16 9 10 11 12 14 15 16 16 16 17 18 18 18 16 14 15 19 19 20 19 16 13 16 14 14 17 18 19 20 19 15 13 14